Location: Chmeli�t?
(49.8978°N, 15.0526°E)
Time: 08:03:28
(UTC+00:00)

Cosmos 2074 Rocket - Pass Details

Date: 09 October 2020
Orbit: 967 x 987 km, 82.9° (Epoch: 30 October)

Event Time Altitude Azimuth Distance (km) Brightness Sun altitude
Rises 19:02:49 0° 359° (N) 3,691 7.3 -26.5°
Reaches altitude 10° 19:06:44 10° 23° (NNE) 2,734 6.3 -27.1°
Enters shadow 19:08:13 13° 36° (NE) 2,511 6.0 -27.3°
